Time,TemperatureF,DewpointF,PressureIn,WindDirection,WindDirectionDegrees,WindSpeedMPH,WindSpeedGustMPH,Humidity,HourlyPrecipIn,Conditions,Clouds,dailyrainin,SolarRadiationWatts/m^2,SoftwareType,DateUTC
2013-01-22 00:22:00,65.0,-30.0,-100.00,NNE,20,22.0,35.0,0,0.00,,,0.00,0.000000,,2013-01-22 10:22:00,
2013-01-22 00:32:00,65.0,-30.0,-100.00,NNE,20,22.0,35.0,0,0.00,,,0.00,0.000000,,2013-01-22 10:32:00,
2013-01-22 00:42:00,65.0,-30.0,-100.00,NNE,20,22.0,35.0,0,0.00,,,0.00,0.000000,,2013-01-22 10:42:00,
2013-01-22 00:52:00,64.0,-31.0,-100.00,WSW,237,13.0,34.0,0,0.00,,,-99.99,0.000000,,2013-01-22 10:52:00,
2013-01-22 01:12:00,64.0,-31.0,-100.00,WSW,237,13.0,34.0,0,0.00,,,-99.99,0.000000,,2013-01-22 11:12:00,
2013-01-22 01:22:00,64.0,-31.0,-100.00,WSW,237,13.0,34.0,0,0.00,,,-99.99,0.000000,,2013-01-22 11:22:00,
2013-01-22 01:33:00,64.0,-31.0,-100.00,WSW,237,13.0,34.0,0,0.00,,,-99.99,0.000000,,2013-01-22 11:33:00,
2013-01-22 01:42:00,64.0,-31.0,-100.00,WSW,237,13.0,34.0,0,0.00,,,-99.99,0.000000,,2013-01-22 11:42:00,
2013-01-22 01:52:00,66.0,-29.0,-100.00,ESE,121,24.0,40.0,0,0.00,,,-99.99,0.000000,,2013-01-22 11:52:00,
2013-01-22 02:12:00,66.0,-29.0,-100.00,ESE,121,24.0,40.0,0,0.00,,,-99.99,0.000000,,2013-01-22 12:12:00,
2013-01-22 02:22:00,66.0,-29.0,-100.00,ESE,121,24.0,40.0,0,0.00,,,-99.99,0.000000,,2013-01-22 12:22:00,
2013-01-22 02:32:00,66.0,-29.0,-100.00,ESE,121,24.0,40.0,0,0.00,,,-99.99,0.000000,,2013-01-22 12:32:00,
2013-01-22 02:42:00,66.0,-29.0,-100.00,ESE,121,24.0,40.0,0,0.00,,,-99.99,0.000000,,2013-01-22 12:42:00,
2013-01-22 02:52:00,66.0,-29.0,-100.00,South,183,10.0,38.0,0,0.00,,,0.00,0.000000,,2013-01-22 12:52:00,
2013-01-22 03:13:00,66.0,-29.0,-100.00,South,183,10.0,38.0,0,0.00,,,0.00,0.000000,,2013-01-22 13:13:00,
2013-01-22 03:23:00,66.0,-29.0,-100.00,South,183,10.0,38.0,0,0.00,,,0.00,0.000000,,2013-01-22 13:23:00,
2013-01-22 03:33:00,66.0,-29.0,-100.00,South,183,10.0,38.0,0,0.00,,,0.00,0.000000,,2013-01-22 13:33:00,
2013-01-22 03:42:00,66.0,-29.0,-100.00,South,183,10.0,38.0,0,0.00,,,0.00,0.000000,,2013-01-22 13:42:00,
2013-01-22 03:52:00,66.0,-29.0,-100.00,North,358,15.0,33.0,0,0.00,,,0.00,0.000000,,2013-01-22 13:52:00,
2013-01-22 04:12:00,66.0,-29.0,-100.00,North,358,15.0,33.0,0,0.00,,,0.00,0.000000,,2013-01-22 14:12:00,
2013-01-22 04:23:00,66.0,-29.0,-100.00,North,358,15.0,33.0,0,0.00,,,0.00,0.000000,,2013-01-22 14:23:00,
2013-01-22 04:33:00,66.0,-29.0,-100.00,North,358,15.0,33.0,0,0.00,,,0.00,0.000000,,2013-01-22 14:33:00,
2013-01-22 04:43:00,66.0,-29.0,-100.00,North,358,15.0,33.0,0,0.00,,,0.00,0.000000,,2013-01-22 14:43:00,
2013-01-22 04:52:00,63.0,-31.0,-100.00,NNE,22,3.0,49.0,0,0.00,,,0.00,0.000000,,2013-01-22 14:52:00,
2013-01-22 05:12:00,63.0,-31.0,-100.00,NNE,22,3.0,49.0,0,0.00,,,0.00,0.000000,,2013-01-22 15:12:00,
2013-01-22 05:23:00,63.0,-31.0,-100.00,NNE,22,3.0,49.0,0,0.00,,,0.00,0.000000,,2013-01-22 15:23:00,
2013-01-22 05:33:00,63.0,-31.0,-100.00,NNE,22,3.0,49.0,0,0.00,,,0.00,0.000000,,2013-01-22 15:33:00,
2013-01-22 05:43:00,63.0,-31.0,-100.00,NNE,22,3.0,49.0,0,0.00,,,0.00,0.000000,,2013-01-22 15:43:00,
2013-01-22 05:52:00,64.0,-31.0,-100.00,SW,229,7.0,35.0,0,0.00,,,0.00,0.000000,,2013-01-22 15:52:00,
2013-01-22 06:13:00,64.0,-31.0,-100.00,SW,229,7.0,35.0,0,0.00,,,0.00,0.000000,,2013-01-22 16:13:00,
2013-01-22 06:23:00,64.0,-31.0,-100.00,SW,229,7.0,35.0,0,0.00,,,0.00,0.000000,,2013-01-22 16:23:00,
2013-01-22 06:33:00,64.0,-31.0,-100.00,SW,229,7.0,35.0,0,0.00,,,0.00,0.000000,,2013-01-22 16:33:00,
2013-01-22 06:43:00,64.0,-31.0,-100.00,SW,229,7.0,35.0,0,0.00,,,0.00,0.000000,,2013-01-22 16:43:00,
2013-01-22 06:52:00,65.0,-30.0,-100.00,WNW,282,6.0,31.0,0,0.00,,,0.00,0.000000,,2013-01-22 16:52:00,
2013-01-22 07:23:00,65.0,-30.0,-100.00,WNW,282,6.0,31.0,0,0.00,,,0.00,0.000000,,2013-01-22 17:23:00,
2013-01-22 07:33:00,65.0,-30.0,-100.00,WNW,282,6.0,31.0,0,0.00,,,0.00,0.000000,,2013-01-22 17:33:00,
2013-01-22 07:43:00,65.0,-30.0,-100.00,WNW,282,6.0,31.0,0,0.00,,,0.00,0.000000,,2013-01-22 17:43:00,
2013-01-22 07:52:00,66.0,-29.0,-100.00,ESE,119,10.0,34.0,0,0.00,,,0.00,0.000000,,2013-01-22 17:52:00,
2013-01-22 08:12:00,66.0,-29.0,-100.00,ESE,119,10.0,34.0,0,0.00,,,0.00,0.000000,,2013-01-22 18:12:00,
2013-01-22 08:23:00,66.0,-29.0,-100.00,ESE,119,10.0,34.0,0,0.00,,,0.00,0.000000,,2013-01-22 18:23:00,
2013-01-22 08:33:00,66.0,-29.0,-100.00,ESE,119,10.0,34.0,0,0.00,,,0.00,0.000000,,2013-01-22 18:33:00,
2013-01-22 08:43:00,66.0,-29.0,-100.00,ESE,119,10.0,34.0,0,0.00,,,0.00,0.000000,,2013-01-22 18:43:00,
2013-01-22 08:52:00,68.0,-28.0,-100.00,SW,228,4.0,29.0,0,0.00,,,0.00,79.000000,,2013-01-22 18:52:00,
2013-01-22 09:13:00,68.0,-28.0,-100.00,SW,228,4.0,29.0,0,0.00,,,0.00,79.000000,,2013-01-22 19:13:00,
2013-01-22 09:23:00,68.0,-28.0,-100.00,SW,228,4.0,29.0,0,0.00,,,0.00,79.000000,,2013-01-22 19:23:00,
2013-01-22 09:33:00,68.0,-28.0,-100.00,SW,228,4.0,29.0,0,0.00,,,0.00,79.000000,,2013-01-22 19:33:00,
2013-01-22 09:43:00,68.0,-28.0,-100.00,SW,228,4.0,29.0,0,0.00,,,0.00,79.000000,,2013-01-22 19:43:00,
2013-01-22 09:52:00,70.0,-27.0,-100.00,ESE,122,7.0,26.0,0,0.00,,,0.00,294.000000,,2013-01-22 19:52:00,
2013-01-22 10:12:00,70.0,-27.0,-100.00,ESE,122,7.0,26.0,0,0.00,,,0.00,294.000000,,2013-01-22 20:12:00,
2013-01-22 10:23:00,70.0,-27.0,-100.00,ESE,122,7.0,26.0,0,0.00,,,0.00,294.000000,,2013-01-22 20:23:00,
2013-01-22 10:33:00,70.0,-27.0,-100.00,ESE,122,7.0,26.0,0,0.00,,,0.00,294.000000,,2013-01-22 20:33:00,
2013-01-22 10:42:00,70.0,-27.0,-100.00,ESE,122,7.0,26.0,0,0.00,,,0.00,294.000000,,2013-01-22 20:42:00,
2013-01-22 10:52:00,76.0,-23.0,-100.00,SE,136,6.0,25.0,0,0.00,,,0.00,529.000000,,2013-01-22 20:52:00,
2013-01-22 11:13:00,76.0,-23.0,-100.00,SE,136,6.0,25.0,0,0.00,,,0.00,529.000000,,2013-01-22 21:13:00,
2013-01-22 11:22:00,76.0,-23.0,-100.00,SE,136,6.0,25.0,0,0.00,,,0.00,529.000000,,2013-01-22 21:22:00,
2013-01-22 11:33:00,76.0,-23.0,-100.00,SE,136,6.0,25.0,0,0.00,,,0.00,529.000000,,2013-01-22 21:33:00,
2013-01-22 11:43:00,76.0,-23.0,-100.00,SE,136,6.0,25.0,0,0.00,,,0.00,529.000000,,2013-01-22 21:43:00,
2013-01-22 11:52:00,76.0,-23.0,-100.00,NE,50,13.0,19.0,0,0.00,,,0.00,854.000000,,2013-01-22 21:52:00,
2013-01-22 12:12:00,76.0,-23.0,-100.00,NE,50,13.0,19.0,0,0.00,,,0.00,854.000000,,2013-01-22 22:12:00,
2013-01-22 12:22:00,76.0,-23.0,-100.00,NE,50,13.0,19.0,0,0.00,,,0.00,854.000000,,2013-01-22 22:22:00,
2013-01-22 12:32:00,76.0,-23.0,-100.00,NE,50,13.0,19.0,0,0.00,,,0.00,854.000000,,2013-01-22 22:32:00,
2013-01-22 12:43:00,76.0,-23.0,-100.00,NE,50,13.0,19.0,0,0.00,,,0.00,854.000000,,2013-01-22 22:43:00,
2013-01-22 12:52:00,74.0,-25.0,-100.00,NW,322,6.0,30.0,0,0.00,,,0.00,471.000000,,2013-01-22 22:52:00,
2013-01-22 13:12:00,74.0,-25.0,-100.00,NW,322,6.0,30.0,0,0.00,,,0.00,471.000000,,2013-01-22 23:12:00,
2013-01-22 13:23:00,74.0,-25.0,-100.00,NW,322,6.0,30.0,0,0.00,,,0.00,471.000000,,2013-01-22 23:23:00,
2013-01-22 13:33:00,74.0,-25.0,-100.00,NW,322,6.0,30.0,0,0.00,,,0.00,471.000000,,2013-01-22 23:33:00,
2013-01-22 13:42:00,74.0,-25.0,-100.00,NW,322,6.0,30.0,0,0.00,,,0.00,471.000000,,2013-01-22 23:42:00,
2013-01-22 13:52:00,74.0,-25.0,-100.00,WNW,285,15.0,35.0,0,0.00,,,-99.99,767.000000,,2013-01-22 23:52:00,
2013-01-22 14:12:00,74.0,-25.0,-100.00,WNW,285,15.0,35.0,0,0.00,,,-99.99,767.000000,,2013-01-23 00:12:00,
2013-01-22 14:22:00,74.0,-25.0,-100.00,WNW,285,15.0,35.0,0,0.00,,,-99.99,767.000000,,2013-01-23 00:22:00,
2013-01-22 14:33:00,74.0,-25.0,-100.00,WNW,285,15.0,35.0,0,0.00,,,-99.99,767.000000,,2013-01-23 00:33:00,
2013-01-22 14:42:00,74.0,-25.0,-100.00,WNW,285,15.0,35.0,0,0.00,,,-99.99,767.000000,,2013-01-23 00:42:00,
2013-01-22 14:52:00,73.0,-25.0,-100.00,East,83,14.0,30.0,0,0.00,,,0.00,720.000000,,2013-01-23 00:52:00,
2013-01-22 15:22:00,73.0,-25.0,-100.00,East,83,14.0,30.0,0,0.00,,,0.00,720.000000,,2013-01-23 01:22:00,
2013-01-22 15:33:00,73.0,-25.0,-100.00,East,83,14.0,30.0,0,0.00,,,0.00,720.000000,,2013-01-23 01:33:00,
2013-01-22 15:42:00,73.0,-25.0,-100.00,East,83,14.0,30.0,0,0.00,,,0.00,720.000000,,2013-01-23 01:42:00,
2013-01-22 15:52:00,73.0,-25.0,-100.00,SSE,164,11.0,31.0,0,0.00,,,0.00,627.000000,,2013-01-23 01:52:00,
2013-01-22 16:12:00,73.0,-25.0,-100.00,SSE,164,11.0,31.0,0,0.00,,,0.00,627.000000,,2013-01-23 02:12:00,
2013-01-22 16:23:00,73.0,-25.0,-100.00,SSE,164,11.0,31.0,0,0.00,,,0.00,627.000000,,2013-01-23 02:23:00,
2013-01-22 16:33:00,73.0,-25.0,-100.00,SSE,164,11.0,31.0,0,0.00,,,0.00,627.000000,,2013-01-23 02:33:00,
2013-01-22 16:42:00,73.0,-25.0,-100.00,SSE,164,11.0,31.0,0,0.00,,,0.00,627.000000,,2013-01-23 02:42:00,
2013-01-22 16:52:00,73.0,-25.0,-100.00,SSW,210,14.0,24.0,0,0.00,,,0.00,628.000000,,2013-01-23 02:52:00,
2013-01-22 17:12:00,73.0,-25.0,-100.00,SSW,210,14.0,24.0,0,0.00,,,0.00,628.000000,,2013-01-23 03:12:00,
2013-01-22 17:23:00,73.0,-25.0,-100.00,SSW,210,14.0,24.0,0,0.00,,,0.00,628.000000,,2013-01-23 03:23:00,
2013-01-22 17:32:00,73.0,-25.0,-100.00,SSW,210,14.0,24.0,0,0.00,,,0.00,628.000000,,2013-01-23 03:32:00,
2013-01-22 17:42:00,73.0,-25.0,-100.00,SSW,210,14.0,24.0,0,0.00,,,0.00,628.000000,,2013-01-23 03:42:00,
2013-01-22 17:52:00,72.0,-26.0,-100.00,East,81,20.0,28.0,0,0.00,,,0.00,429.000000,,2013-01-23 03:52:00,
2013-01-22 18:12:00,72.0,-26.0,-100.00,East,81,20.0,28.0,0,0.00,,,0.00,429.000000,,2013-01-23 04:12:00,
2013-01-22 18:32:00,72.0,-26.0,-100.00,East,81,20.0,28.0,0,0.00,,,0.00,429.000000,,2013-01-23 04:32:00,
2013-01-22 18:43:00,72.0,-26.0,-100.00,East,81,20.0,28.0,0,0.00,,,0.00,429.000000,,2013-01-23 04:43:00,
2013-01-22 18:52:00,69.0,-28.0,-100.00,ENE,60,6.0,33.0,0,0.00,,,0.00,127.000000,,2013-01-23 04:52:00,
2013-01-22 19:12:00,69.0,-28.0,-100.00,ENE,60,6.0,33.0,0,0.00,,,0.00,127.000000,,2013-01-23 05:12:00,
2013-01-22 19:22:00,69.0,-28.0,-100.00,ENE,60,6.0,33.0,0,0.00,,,0.00,127.000000,,2013-01-23 05:22:00,
2013-01-22 19:33:00,69.0,-28.0,-100.00,ENE,60,6.0,33.0,0,0.00,,,0.00,127.000000,,2013-01-23 05:33:00,
2013-01-22 19:42:00,69.0,-28.0,-100.00,ENE,60,6.0,33.0,0,0.00,,,0.00,127.000000,,2013-01-23 05:42:00,
2013-01-22 19:52:00,69.0,-28.0,-100.00,SSE,150,11.0,17.0,0,0.00,,,0.00,2.000000,,2013-01-23 05:52:00,
2013-01-22 20:12:00,69.0,-28.0,-100.00,SSE,150,11.0,17.0,0,0.00,,,0.00,2.000000,,2013-01-23 06:12:00,
2013-01-22 20:22:00,69.0,-28.0,-100.00,SSE,150,11.0,17.0,0,0.00,,,0.00,2.000000,,2013-01-23 06:22:00,
2013-01-22 20:32:00,69.0,-28.0,-100.00,SSE,150,11.0,17.0,0,0.00,,,0.00,2.000000,,2013-01-23 06:32:00,
2013-01-22 20:42:00,69.0,-28.0,-100.00,SSE,150,11.0,17.0,0,0.00,,,0.00,2.000000,,2013-01-23 06:42:00,
2013-01-22 20:52:00,68.0,-28.0,-100.00,NNE,14,10.0,30.0,0,0.00,,,0.00,0.000000,,2013-01-23 06:52:00,
2013-01-22 21:12:00,68.0,-28.0,-100.00,NNE,14,10.0,30.0,0,0.00,,,0.00,0.000000,,2013-01-23 07:12:00,
2013-01-22 21:22:00,68.0,-28.0,-100.00,NNE,14,10.0,30.0,0,0.00,,,0.00,0.000000,,2013-01-23 07:22:00,
2013-01-22 21:33:00,68.0,-28.0,-100.00,NNE,14,10.0,30.0,0,0.00,,,0.00,0.000000,,2013-01-23 07:33:00,
2013-01-22 21:42:00,68.0,-28.0,-100.00,NNE,14,10.0,30.0,0,0.00,,,0.00,0.000000,,2013-01-23 07:42:00,
2013-01-22 21:52:00,68.0,-28.0,-100.00,North,354,7.0,29.0,0,0.00,,,0.00,0.000000,,2013-01-23 07:52:00,
2013-01-22 22:22:00,68.0,-28.0,-100.00,North,354,7.0,29.0,0,0.00,,,0.00,0.000000,,2013-01-23 08:22:00,
2013-01-22 22:33:00,68.0,-28.0,-100.00,North,354,7.0,29.0,0,0.00,,,0.00,0.000000,,2013-01-23 08:33:00,
2013-01-22 22:42:00,68.0,-28.0,-100.00,North,354,7.0,29.0,0,0.00,,,0.00,0.000000,,2013-01-23 08:42:00,
2013-01-22 22:52:00,66.0,-29.0,-100.00,North,356,9.0,32.0,0,0.00,,,0.00,0.000000,,2013-01-23 08:52:00,
2013-01-22 23:12:00,66.0,-29.0,-100.00,North,356,9.0,32.0,0,0.00,,,0.00,0.000000,,2013-01-23 09:12:00,
2013-01-22 23:22:00,66.0,-29.0,-100.00,North,356,9.0,32.0,0,0.00,,,0.00,0.000000,,2013-01-23 09:22:00,
2013-01-22 23:32:00,66.0,-29.0,-100.00,North,356,9.0,32.0,0,0.00,,,0.00,0.000000,,2013-01-23 09:32:00,
2013-01-22 23:43:00,66.0,-29.0,-100.00,North,356,9.0,32.0,0,0.00,,,0.00,0.000000,,2013-01-23 09:43:00,
2013-01-22 23:52:00,66.0,-29.0,-100.00,NNW,338,18.0,34.0,0,0.00,,,0.00,0.000000,,2013-01-23 09:52:00,